DL5ARK Weather Reports


Display with metric or nautical units.
time (UTC)temp
F
wind
direction
speed
MPH
gust
MPH
rain 1hr
in
rain 24hr
in
rain mn
in
humidity
%
barometer
mb
20260906024206 42 337 0.0 0.0 0.00 0.00 0.00 79 1014.1
20260906023905 42 180 0.0 0.0 0.00 0.00 0.00 79 1014.1
20260906023606 42 180 0.0 0.0 0.00 0.00 0.00 79 1014.1
20260906023306 42 180 0.0 0.0 0.00 0.00 0.00 79 1014.1
20260906023006 42 180 0.0 0.0 0.00 0.00 0.00 78 1014.1
20260906022708 42 180 0.0 0.0 0.00 0.00 0.00 78 1014.1
20260906022406 43 180 0.0 0.0 0.00 0.00 0.00 78 1014.1
20260906022105 42 180 0.0 0.0 0.00 0.00 0.00 78 1014.1
20260906021806 42 180 0.0 0.0 0.00 0.00 0.00 78 1014.1
20260906021506 43 180 0.0 0.0 0.00 0.00 0.00 79 1014.1
20260906021206 43 180 0.0 0.0 0.00 0.00 0.00 79 1014.1
20260906020906 43 180 0.0 0.0 0.00 0.00 0.00 79 1014.1
20260906020606 43 180 0.0 0.0 0.00 0.00 0.00 79 1014.1
20260906015706 43 337 1.0 1.0 0.00 0.00 0.00 78 1013.9
20260906015405 43 180 0.0 0.0 0.00 0.00 0.00 78 1013.9
20260906014806 43 180 0.0 0.0 0.00 0.00 0.00 78 1013.9
20260906014506 43 180 0.0 0.0 0.00 0.00 0.00 78 1013.9
20260906014206 43 180 0.0 0.0 0.00 0.00 0.00 77 1013.9
20260906013905 42 180 0.0 0.0 0.00 0.00 0.00 76 1013.9
20260906013606 42 180 0.0 0.0 0.00 0.00 0.00 76 1013.9
20260906013306 43 180 0.0 0.0 0.00 0.00 0.00 76 1013.6
20260906013008 43 337 0.0 0.0 0.00 0.00 0.00 77 1013.6
20260906012706 43 180 0.0 0.0 0.00 0.00 0.00 77 1013.9
20260906012406 43 180 0.0 0.0 0.00 0.00 0.00 77 1013.9
20260906012106 43 180 0.0 0.0 0.00 0.00 0.00 76 1013.6
20260906011806 43 180 0.0 0.0 0.00 0.00 0.00 76 1013.6
20260906011506 43 180 0.0 0.0 0.00 0.00 0.00 76 1013.6
20260906011205 43 180 0.0 0.0 0.00 0.00 0.00 76 1013.6
20260906010606 44 180 0.0 0.0 0.00 0.00 0.00 76 1013.6
20260906010306 43 180 0.0 0.0 0.00 0.00 0.00 76 1013.6
20260906010006 43 180 0.0 0.0 0.00 0.00 0.00 76 1013.6
20260906005706 43 180 0.0 0.0 0.00 0.00 0.00 76 1013.6
20260906005105 44 337 0.0 0.0 0.00 0.00 0.00 76 1013.9
20260906004806 44 337 0.0 0.0 0.00 0.00 0.00 77 1013.6
20260906004505 44 180 0.0 0.0 0.00 0.00 0.00 77 1013.6
20260906004206 44 180 0.0 0.0 0.00 0.00 0.00 76 1013.6
20260906003906 44 180 0.0 0.0 0.00 0.00 0.00 77 1013.9
20260906003606 44 180 0.0 0.0 0.00 0.00 0.00 77 1013.6
20260906003005 45 180 0.0 0.0 0.00 0.00 0.00 77 1013.6
20260906002705 45 157 0.0 0.0 0.00 0.00 0.00 76 1013.6
20260906002406 44 90 0.0 0.0 0.00 0.00 0.00 76 1013.6
20260906002106 44 337 0.0 0.0 0.00 0.00 0.00 76 1013.4
20260906001805 44 90 0.0 0.0 0.00 0.00 0.00 76 1013.6
20260906001506 45 90 0.0 0.0 0.00 0.00 0.00 76 1013.6
20260906001209 44 337 0.0 0.0 0.00 0.00 0.00 76 1013.6
20260906000906 45 90 0.0 0.0 0.00 0.00 0.00 76 1013.6
20260906000606 45 180 0.0 0.0 0.00 0.00 0.00 76 1013.6
20260906000307 45 180 0.0 0.0 0.00 0.00 0.00 77 1013.6
20260906000005 46 180 0.0 0.0 0.00 0.00 0.00 77 1013.6
20260905235705 46 180 0.0 0.0 0.00 0.00 0.00 77 1013.6
20260905235405 46 157 0.0 0.0 0.00 0.00 0.00 76 1013.6
20260905234805 45 90 0.0 0.0 0.00 0.00 0.00 75 1013.6
20260905234506 45 90 0.0 0.0 0.00 0.00 0.00 75 1013.4
20260905234206 45 90 0.0 0.0 0.00 0.00 0.00 75 1013.2
20260905233906 45 90 0.0 0.0 0.00 0.00 0.00 76 1013.4
20260905233606 46 90 0.0 0.0 0.00 0.00 0.00 76 1013.4
20260905233006 46 90 0.0 0.0 0.00 0.00 0.00 76 1013.4
20260905232706 46 90 0.0 0.0 0.00 0.00 0.00 76 1013.4
20260905232406 46 180 0.0 0.0 0.00 0.00 0.00 76 1013.4
20260905232106 47 180 0.0 0.0 0.00 0.00 0.00 76 1013.2
20260905231806 47 90 0.0 0.0 0.00 0.00 0.00 76 1013.2
20260905231509 47 0 0.0 0.0 0.00 0.00 0.00 75 1013.2
20260905231206 46 0 0.0 0.0 0.00 0.00 0.00 75 1013.2
20260905230906 47 337 0.0 0.0 0.00 0.00 0.00 75 1013.2
20260905230606 47 22 0.0 0.0 0.00 0.00 0.00 75 1013.2
20260905230306 47 337 1.0 2.0 0.00 0.00 0.00 75 1013.2
20260905225706 47 180 0.0 0.0 0.00 0.00 0.00 75 1013.2
20260905225406 47 180 0.0 0.0 0.00 0.00 0.00 75 1013.2
20260905225106 47 337 0.0 0.0 0.00 0.00 0.00 75 1013.2
20260905224806 47 180 0.0 0.0 0.00 0.00 0.00 75 1013.2
20260905224506 47 180 0.0 0.0 0.00 0.00 0.00 75 1013.2
20260905224209 47 180 0.0 0.0 0.00 0.00 0.00 74 1013.2
20260905223606 47 180 0.0 0.0 0.00 0.00 0.00 74 1013.2
20260905223006 48 180 0.0 0.0 0.00 0.00 0.00 75 1012.9
20260905222406 47 180 0.0 0.0 0.00 0.00 0.00 75 1012.9
20260905221806 48 180 0.0 0.0 0.00 0.00 0.00 76 1012.9
20260905221505 48 180 0.0 0.0 0.00 0.00 0.00 76 1012.7
20260905221206 48 180 0.0 0.0 0.00 0.00 0.00 75 1012.9
20260905220906 48 180 0.0 0.0 0.00 0.00 0.00 76 1012.9
20260905220606 48 180 0.0 0.0 0.00 0.00 0.00 75 1012.7
20260905220305 48 180 0.0 0.0 0.00 0.00 0.00 73 1012.7
20260905220009 48 180 0.0 0.0 0.00 0.00 0.00 72 1012.7
20260905215705 48 180 0.0 0.0 0.00 0.00 0.00 72 1012.7
20260905215406 48 180 0.0 0.0 0.00 0.00 0.00 72 1012.7
20260905215106 49 180 0.0 0.0 0.00 0.00 0.00 72 1012.7
20260905214806 49 337 0.0 0.0 0.00 0.00 0.00 72 1012.7
20260905214506 49 180 0.0 0.0 0.00 0.00 0.00 72 1012.7
20260905213906 49 180 0.0 0.0 0.00 0.00 0.00 72 1012.7
20260905213606 49 180 0.0 0.0 0.00 0.00 0.00 72 1012.4
20260905213305 49 180 0.0 0.0 0.00 0.00 0.00 72 1012.4
20260905213006 49 180 0.0 0.0 0.00 0.00 0.00 71 1012.4
20260905212706 49 180 0.0 0.0 0.00 0.00 0.00 71 1012.7
20260905212405 49 180 0.0 0.0 0.00 0.00 0.00 72 1012.4
20260905211806 50 180 0.0 0.0 0.00 0.00 0.00 72 1012.4
20260905211506 50 180 0.0 0.0 0.00 0.00 0.00 72 1012.7
20260905211206 51 180 0.0 0.0 0.00 0.00 0.00 72 1012.4
20260905210906 50 180 0.0 0.0 0.00 0.00 0.00 72 1012.4
20260905210605 51 180 0.0 0.0 0.00 0.00 0.00 71 1012.4
20260905210309 51 180 0.0 0.0 0.00 0.00 0.00 71 1012.4
20260905210005 51 180 0.0 0.0 0.00 0.00 0.00 71 1012.4
20260905205706 51 337 0.0 0.0 0.00 0.00 0.00 71 1012.2
20260905205406 51 180 0.0 0.0 0.00 0.00 0.00 71 1012.4
20260905205106 51 337 0.0 0.0 0.00 0.00 0.00 71 1012.2
20260905204806 52 180 0.0 0.0 0.00 0.00 0.00 72 1012.2
20260905204506 52 45 0.0 0.0 0.00 0.00 0.00 72 1012.2
20260905204209 52 337 0.0 0.0 0.00 0.00 0.00 72 1012.2
20260905203906 52 45 0.0 0.0 0.00 0.00 0.00 72 1012.2
20260905203606 52 337 0.0 0.0 0.00 0.00 0.00 72 1012.2
20260905203305 52 45 0.0 0.0 0.00 0.00 0.00 72 1012.2
20260905203005 52 45 0.0 0.0 0.00 0.00 0.00 71 1012.2
20260905202705 52 45 0.0 0.0 0.00 0.00 0.00 71 1012.2
20260905202106 52 45 0.0 0.0 0.00 0.00 0.00 70 1012.2
20260905201806 52 45 0.0 0.0 0.00 0.00 0.00 69 1012.2
20260905201505 51 337 0.0 0.0 0.00 0.00 0.00 69 1012.2
20260905201206 51 45 0.0 0.0 0.00 0.00 0.00 68 1012.2
20260905200906 51 45 0.0 0.0 0.00 0.00 0.00 68 1012.2
20260905200608 51 45 0.0 0.0 0.00 0.00 0.00 68 1012.2
20260905200305 51 45 0.0 0.0 0.00 0.00 0.00 68 1012.2
20260905200006 52 45 0.0 0.0 0.00 0.00 0.00 67 1011.9
20260905195706 52 45 0.0 0.0 0.00 0.00 0.00 67 1011.9
20260905195406 52 45 0.0 0.0 0.00 0.00 0.00 67 1012.2
20260905195105 52 45 0.0 0.0 0.00 0.00 0.00 67 1011.9
20260905194805 52 337 0.0 0.0 0.00 0.00 0.00 67 1011.9
20260905194509 52 45 0.0 0.0 0.00 0.00 0.00 66 1011.7
20260905194206 52 45 0.0 0.0 0.00 0.00 0.00 66 1011.7
20260905193905 53 45 0.0 0.0 0.00 0.00 0.00 65 1011.7
20260905193606 53 45 0.0 0.0 0.00 0.00 0.00 65 1011.9
20260905193306 53 337 0.0 0.0 0.00 0.00 0.00 65 1011.7
20260905193007 53 45 0.0 0.0 0.00 0.00 0.00 65 1011.7
20260905192706 53 45 0.0 0.0 0.00 0.00 0.00 65 1011.7
20260905192106 54 45 0.0 0.0 0.00 0.00 0.00 64 1011.7
20260905191806 54 45 0.0 0.0 0.00 0.00 0.00 64 1011.7
20260905191505 54 45 0.0 0.0 0.00 0.00 0.00 64 1011.7
20260905191206 54 22 0.0 0.0 0.00 0.00 0.00 64 1011.7
20260905190605 55 22 0.0 0.0 0.00 0.00 0.00 63 1011.7
20260905190306 55 22 0.0 0.0 0.00 0.00 0.00 63 1011.7
20260905190006 55 22 0.0 0.0 0.00 0.00 0.00 63 1011.4
20260905185706 55 0 0.0 0.0 0.00 0.00 0.00 62 1011.4
20260905185105 56 0 0.0 0.0 0.00 0.00 0.00 62 1011.7
20260905184805 57 0 0.0 0.0 0.00 0.00 0.00 61 1011.7
20260905184505 57 0 0.0 0.0 0.00 0.00 0.00 60 1011.4
20260905184206 57 0 0.0 0.0 0.00 0.00 0.00 59 1011.4
20260905183906 58 0 0.0 0.0 0.00 0.00 0.00 59 1011.4
20260905183307 59 0 1.0 1.0 0.00 0.00 0.00 58 1011.4
20260905183006 59 0 1.0 1.0 0.00 0.00 0.00 57 1011.2
20260905182706 60 0 0.0 0.0 0.00 0.00 0.00 57 1011.2
20260905182406 61 0 1.0 1.0 0.00 0.00 0.00 57 1011.2
20260905182106 61 337 2.0 2.0 0.00 0.00 0.00 56 1011.2
20260905181806 61 315 1.0 1.0 0.00 0.00 0.00 55 1011.2
20260905181206 61 315 2.0 2.0 0.00 0.00 0.00 56 1011.2
20260905180906 62 315 1.0 2.0 0.00 0.00 0.00 55 1010.9
20260905180605 62 315 3.0 3.0 0.00 0.00 0.00 54 1010.9
20260905180306 62 270 4.0 4.0 0.00 0.00 0.00 54 1010.9
20260905180005 63 270 5.0 5.0 0.00 0.00 0.00 54 1010.9
20260905175706 63 270 4.0 4.0 0.00 0.00 0.00 54 1010.9
20260905175408 63 315 3.0 3.0 0.00 0.00 0.00 54 1010.7
20260905175106 62 292 4.0 4.0 0.00 0.00 0.00 55 1010.9
20260905174806 63 247 0.0 0.0 0.00 0.00 0.00 55 1010.7
20260905174505 63 337 1.0 1.0 0.00 0.00 0.00 54 1010.7
20260905174206 64 292 1.0 1.0 0.00 0.00 0.00 54 1010.7
20260905173906 64 292 1.0 1.0 0.00 0.00 0.00 54 1010.7
20260905173306 64 315 2.0 2.0 0.00 0.00 0.00 54 1010.7
20260905173006 65 315 2.0 2.0 0.00 0.00 0.00 53 1010.7
20260905172706 65 0 1.0 1.0 0.00 0.00 0.00 54 1010.7
20260905172406 65 337 1.0 1.0 0.00 0.00 0.00 53 1010.7
20260905172106 65 292 2.0 2.0 0.00 0.00 0.00 52 1010.4
20260905171806 66 337 4.0 4.0 0.00 0.00 0.00 52 1010.4
20260905171205 66 315 3.0 3.0 0.00 0.00 0.00 52 1010.4
20260905170906 66 292 3.0 3.0 0.00 0.00 0.00 52 1010.4
20260905170605 67 315 5.0 5.0 0.00 0.00 0.00 53 1010.4
20260905170305 67 292 2.0 2.0 0.00 0.00 0.00 52 1010.4
20260905170006 67 315 3.0 3.0 0.00 0.00 0.00 52 1010.4
20260905165706 67 337 4.0 4.0 0.00 0.00 0.00 51 1010.2
20260905165409 68 292 4.0 4.0 0.00 0.00 0.00 50 1010.2
20260905165106 69 337 6.0 6.0 0.00 0.00 0.00 51 1010.2
20260905164806 68 337 6.0 6.0 0.00 0.00 0.00 50 1010.2
20260905164506 69 270 3.0 3.0 0.00 0.00 0.00 51 1010.2
20260905164206 69 270 5.0 5.0 0.00 0.00 0.00 51 1010.2
20260905163906 69 315 4.0 4.0 0.00 0.00 0.00 50 1010.2
20260905163608 70 315 4.0 4.0 0.00 0.00 0.00 50 1010.2
20260905163306 69 315 5.0 5.0 0.00 0.00 0.00 50 1010.2
20260905163005 69 270 9.0 9.0 0.00 0.00 0.00 50 1010.2
20260905162705 68 247 9.0 9.0 0.00 0.00 0.00 50 1009.9
20260905162406 69 337 6.0 6.0 0.00 0.00 0.00 50 1009.7
20260905162105 68 337 7.0 7.0 0.00 0.00 0.00 50 1009.7
20260905161809 68 337 5.0 5.0 0.00 0.00 0.00 50 1009.7
20260905161505 68 292 4.0 4.0 0.00 0.00 0.00 51 1009.7
20260905161205 67 270 6.0 6.0 0.00 0.00 0.00 50 1009.7
20260905160906 68 292 5.0 5.0 0.00 0.00 0.00 51 1009.7
20260905160606 67 315 8.0 8.0 0.00 0.00 0.00 50 1009.7
20260905160306 67 270 10.0 10.0 0.00 0.00 0.00 50 1009.7
20260905155706 67 292 15.0 15.0 0.00 0.00 0.00 50 1009.4
20260905155406 67 270 9.0 9.0 0.00 0.00 0.00 49 1009.4
20260905155107 68 270 5.0 5.0 0.00 0.00 0.00 48 1009.4
20260905154805 69 315 6.0 6.0 0.00 0.00 0.00 48 1009.4
20260905154506 70 0 6.0 6.0 0.00 0.00 0.00 48 1009.2
20260905154205 70 270 12.0 12.0 0.00 0.00 0.00 48 1009.7
20260905153605 69 315 5.0 5.0 0.00 0.00 0.00 48 1009.4
20260905153306 69 315 7.0 7.0 0.00 0.00 0.00 47 1009.2
20260905153005 71 337 8.0 8.0 0.00 0.00 0.00 47 1009.2
20260905152707 71 270 10.0 10.0 0.00 0.00 0.00 48 1009.2
20260905152407 71 247 3.0 3.0 0.00 0.00 0.00 47 1009.2
20260905152106 71 270 4.0 4.0 0.00 0.00 0.00 46 1009.2
20260905151506 72 247 8.0 8.0 0.00 0.00 0.00 47 1009.2
20260905151206 71 292 4.0 4.0 0.00 0.00 0.00 47 1009.2
20260905150906 71 337 7.0 7.0 0.00 0.00 0.00 46 1009.2
20260905150307 70 270 11.0 12.0 0.00 0.00 0.00 46 1009.2
20260905150006 71 270 8.0 8.0 0.00 0.00 0.00 47 1009.2
20260905145706 70 315 6.0 6.0 0.00 0.00 0.00 47 1009.2
20260905145406 70 337 11.0 11.0 0.00 0.00 0.00 46 1009.2
20260905145106 71 0 6.0 6.0 0.00 0.00 0.00 49 1008.9
20260905144806 70 337 3.0 4.0 0.00 0.00 0.00 48 1008.9
20260905144205 70 337 4.0 4.0 0.00 0.00 0.00 47 1008.9
20260905143905 71 0 11.0 11.0 0.00 0.00 0.00 45 1009.2
20260905143605 71 247 8.0 8.0 0.00 0.00 0.00 46 1008.9
20260905143306 72 247 4.0 4.0 0.00 0.00 0.00 46 1008.9
20260905143005 71 270 3.0 3.0 0.00 0.00 0.00 46 1008.9
20260905142406 71 225 9.0 9.0 0.00 0.00 0.00 45 1008.9
20260905142105 72 337 8.0 8.0 0.00 0.00 0.00 46 1008.9
20260905141806 72 270 7.0 7.0 0.00 0.00 0.00 46 1009.2
20260905141506 72 247 8.0 8.0 0.00 0.00 0.00 47 1008.9
20260905141206 72 315 5.0 5.0 0.00 0.00 0.00 47 1008.9
20260905140606 70 292 11.0 12.0 0.00 0.00 0.00 47 1008.7
20260905140306 70 270 10.0 10.0 0.00 0.00 0.00 46 1008.9
20260905140006 71 315 5.0 5.0 0.00 0.00 0.00 45 1008.7
20260905135706 70 270 6.0 6.0 0.00 0.00 0.00 45 1008.7
20260905135408 70 315 9.0 9.0 0.00 0.00 0.00 46 1008.7
20260905135106 70 337 4.0 4.0 0.00 0.00 0.00 45 1008.7
20260905134806 71 247 5.0 5.0 0.00 0.00 0.00 44 1008.7
20260905134506 72 315 5.0 5.0 0.00 0.00 0.00 45 1008.7
20260905134206 73 270 6.0 6.0 0.00 0.00 0.00 46 1008.7
20260905133905 73 247 15.0 15.0 0.00 0.00 0.00 44 1008.7
20260905133605 72 247 10.0 10.0 0.00 0.00 0.00 46 1008.7
20260905133308 71 315 6.0 6.0 0.00 0.00 0.00 44 1008.7
20260905133006 72 270 7.0 7.0 0.00 0.00 0.00 44 1008.7
20260905132706 71 270 12.0 12.0 0.00 0.00 0.00 45 1008.7
20260905132406 71 247 13.0 13.0 0.00 0.00 0.00 47 1008.7
20260905132106 72 315 5.0 5.0 0.00 0.00 0.00 47 1008.7
20260905131806 72 225 9.0 9.0 0.00 0.00 0.00 48 1008.5
20260905131506 72 270 3.0 3.0 0.00 0.00 0.00 46 1008.5
20260905131208 71 315 12.0 12.0 0.00 0.00 0.00 45 1008.7
20260905130905 71 225 9.0 9.0 0.00 0.00 0.00 45 1008.7
20260905130606 71 225 8.0 8.0 0.00 0.00 0.00 47 1008.7
20260905130306 71 270 10.0 10.0 0.00 0.00 0.00 46 1008.7
20260905130006 72 337 5.0 5.0 0.00 0.00 0.00 47 1008.7
20260905125406 71 337 8.0 8.0 0.00 0.00 0.00 47 1008.5
20260905125105 71 270 10.0 11.0 0.00 0.00 0.00 48 1008.2
20260905124805 70 292 4.0 4.0 0.00 0.00 0.00 49 1008.5
20260905124505 70 337 8.0 8.0 0.00 0.00 0.00 50 1008.5
20260905124206 70 225 5.0 5.0 0.00 0.00 0.00 49 1008.5
20260905123906 70 337 6.0 6.0 0.00 0.00 0.00 51 1008.2
20260905123306 69 247 4.0 4.0 0.00 0.00 0.00 52 1008.2
20260905123005 69 337 4.0 4.0 0.00 0.00 0.00 53 1008.2
20260905122705 69 270 6.0 6.0 0.00 0.00 0.00 53 1008.2
20260905122406 68 315 7.0 7.0 0.00 0.00 0.00 50 1008.5
20260905122106 69 270 5.0 5.0 0.00 0.00 0.00 54 1008.2
20260905121808 67 337 5.0 5.0 0.00 0.00 0.00 51 1008.5
20260905121506 67 270 4.0 4.0 0.00 0.00 0.00 51 1008.2
20260905121206 68 337 6.0 6.0 0.00 0.00 0.00 51 1008.2
20260905120906 67 270 12.0 12.0 0.00 0.00 0.00 50 1008.2
20260905120606 68 225 9.0 9.0 0.00 0.00 0.00 50 1008.2
20260905120305 68 337 14.0 14.0 0.00 0.00 0.00 48 1008.2
20260905120005 69 292 9.0 9.0 0.00 0.00 0.00 49 1008.2
20260905115405 68 292 5.0 5.0 0.00 0.00 0.00 49 1008.2
20260905115106 69 315 8.0 8.0 0.00 0.00 0.00 50 1008.2
20260905114806 69 292 3.0 4.0 0.00 0.00 0.00 50 1008.2
20260905114506 70 247 4.0 4.0 0.00 0.00 0.00 50 1008.2
20260905114205 68 270 8.0 8.0 0.00 0.00 0.00 49 1008.2
20260905113906 68 337 10.0 10.0 0.00 0.00 0.00 49 1008.2
20260905113305 69 292 9.0 9.0 0.00 0.00 0.00 50 1008.2
20260905113005 70 337 10.0 10.0 0.00 0.00 0.00 53 1008.2
20260905112705 69 337 6.0 6.0 0.00 0.00 0.00 52 1008.5
20260905112406 69 270 7.0 7.0 0.00 0.00 0.00 51 1008.5
20260905112107 69 337 7.0 7.0 0.00 0.00 0.00 51 1008.5
20260905111805 69 225 4.0 4.0 0.00 0.00 0.00 54 1008.5
20260905111509 68 337 8.0 8.0 0.00 0.00 0.00 53 1008.2
20260905111206 68 225 4.0 4.0 0.00 0.00 0.00 56 1008.5
20260905110905 68 270 14.0 14.0 0.00 0.00 0.00 56 1008.2
20260905110606 67 315 6.0 7.0 0.00 0.00 0.00 57 1008.5
20260905110306 67 270 10.0 10.0 0.00 0.00 0.00 58 1008.7
20260905110006 65 270 8.0 8.0 0.00 0.00 0.00 57 1008.5
20260905105405 66 292 6.0 6.0 0.00 0.00 0.00 55 1008.5
20260905105106 67 270 13.0 13.0 0.00 0.00 0.00 55 1008.5
20260905104806 68 270 8.0 8.0 0.00 0.00 0.00 56 1008.2
20260905104505 69 292 5.0 5.0 0.00 0.00 0.00 56 1008.2
20260905104206 68 292 6.0 6.0 0.00 0.00 0.00 57 1008.5
20260905103907 66 22 4.0 4.0 0.00 0.00 0.00 56 1008.5
20260905103306 67 315 4.0 4.0 0.00 0.00 0.00 57 1008.2
20260905103005 68 292 16.0 16.0 0.00 0.00 0.00 56 1008.5
20260905102705 68 247 7.0 7.0 0.00 0.00 0.00 59 1008.5
20260905102407 68 337 6.0 6.0 0.00 0.00 0.00 58 1008.2
20260905102106 68 225 5.0 5.0 0.00 0.00 0.00 59 1008.5
20260905101809 68 270 9.0 9.0 0.00 0.00 0.00 61 1008.5
20260905101506 68 202 3.0 3.0 0.00 0.00 0.00 63 1008.7
20260905101205 66 315 6.0 6.0 0.00 0.00 0.00 62 1008.5
20260905100906 66 225 6.0 6.0 0.00 0.00 0.00 62 1008.5
20260905100606 65 247 7.0 7.0 0.00 0.00 0.00 62 1008.5
20260905100306 65 292 8.0 8.0 0.00 0.00 0.00 63 1008.5
20260905100005 64 270 10.0 10.0 0.00 0.00 0.00 62 1008.5
20260905095407 64 337 13.0 13.0 0.00 0.00 0.00 62 1008.5
20260905095106 65 247 4.0 4.0 0.00 0.00 0.00 61 1008.5
20260905094806 65 180 3.0 3.0 0.00 0.00 0.00 62 1008.5
20260905094506 66 292 9.0 9.0 0.00 0.00 0.00 63 1008.2
20260905094206 67 270 6.0 6.0 0.00 0.00 0.00 65 1008.2
20260905093906 65 270 5.0 5.0 0.00 0.00 0.00 62 1008.2
20260905093305 66 337 5.0 5.0 0.00 0.00 0.00 65 1008.2
20260905093006 66 315 9.0 9.0 0.00 0.00 0.00 65 1008.2
20260905092706 65 202 6.0 6.0 0.00 0.00 0.00 66 1008.2
20260905092406 65 337 8.0 8.0 0.00 0.00 0.00 66 1008.5
20260905092106 65 270 10.0 10.0 0.00 0.00 0.00 67 1008.2
20260905091507 65 247 3.0 3.0 0.00 0.00 0.00 67 1008.2
20260905091206 64 247 10.0 10.0 0.00 0.00 0.00 69 1008.2
20260905090906 64 270 8.0 8.0 0.00 0.00 0.00 68 1008.2
20260905090606 63 270 10.0 10.0 0.00 0.00 0.00 68 1008.2
20260905090306 63 270 4.0 4.0 0.00 0.00 0.00 68 1008.2
20260905090006 63 225 11.0 11.0 0.00 0.00 0.00 67 1008.2
20260905085405 63 315 6.0 6.0 0.00 0.00 0.00 68 1008.2
20260905085106 63 270 7.0 7.0 0.00 0.00 0.00 69 1008.0
20260905084805 64 337 9.0 9.0 0.00 0.00 0.00 69 1008.2
20260905084506 63 337 9.0 9.0 0.00 0.00 0.00 68 1008.0
20260905084206 63 270 6.0 6.0 0.00 0.00 0.00 71 1008.0
20260905083605 63 270 5.0 5.0 0.00 0.00 0.00 71 1008.0
20260905083005 62 270 7.0 7.0 0.00 0.00 0.00 72 1008.0
20260905082706 62 270 8.0 8.0 0.00 0.00 0.00 72 1008.0
20260905082406 62 225 11.0 11.0 0.00 0.00 0.00 73 1008.0
20260905082108 62 247 9.0 9.0 0.00 0.00 0.00 73 1008.0
20260905081805 62 225 12.0 12.0 0.00 0.00 0.00 73 1007.7
20260905081506 62 247 5.0 5.0 0.00 0.00 0.00 73 1007.7
20260905081206 62 225 6.0 6.0 0.00 0.00 0.00 74 1008.0
20260905080905 62 337 4.0 4.0 0.00 0.00 0.00 74 1007.7
20260905080605 62 225 8.0 8.0 0.00 0.00 0.00 75 1008.0
20260905080305 62 202 5.0 5.0 0.00 0.00 0.00 76 1007.7
20260905080009 61 225 9.0 9.0 0.00 0.00 0.00 76 1007.7
20260905075705 61 337 2.0 2.0 0.00 0.00 0.00 75 1007.7
20260905075405 61 337 8.0 8.0 0.00 0.00 0.00 76 1007.7
20260905075105 62 270 6.0 6.0 0.00 0.00 0.00 77 1008.0
20260905074806 61 225 7.0 7.0 0.00 0.00 0.00 77 1007.7
20260905074506 61 337 6.0 6.0 0.00 0.00 0.00 78 1007.7
20260905074206 60 270 11.0 11.0 0.00 0.00 0.00 79 1007.7
20260905073606 60 225 6.0 6.0 0.00 0.00 0.00 80 1007.7
20260905073306 60 337 2.0 2.0 0.00 0.00 0.00 79 1007.7
20260905073006 60 225 3.0 3.0 0.00 0.00 0.00 79 1007.7
20260905072705 60 337 4.0 4.0 0.00 0.00 0.00 79 1007.5
20260905072405 59 270 2.0 2.0 0.00 0.00 0.00 79 1007.7
20260905071806 59 270 3.0 3.0 0.00 0.00 0.00 79 1007.7
20260905071506 59 270 3.0 3.0 0.00 0.00 0.00 79 1007.7
20260905071206 59 180 6.0 6.0 0.00 0.00 0.00 80 1007.7
20260905070906 59 337 5.0 5.0 0.00 0.00 0.00 81 1007.5
20260905070606 59 225 6.0 6.0 0.00 0.00 0.00 82 1007.5
20260905070306 59 180 4.0 4.0 0.00 0.00 0.00 82 1007.5
20260905070009 59 225 3.0 3.0 0.00 0.00 0.00 82 1007.5
20260905065706 59 292 0.0 0.0 0.00 0.00 0.00 82 1007.5
20260905065406 58 90 1.0 1.0 0.00 0.00 0.00 81 1007.5
20260905065106 58 67 1.0 1.0 0.00 0.00 0.00 81 1007.2
20260905064806 58 67 0.0 0.0 0.00 0.00 0.00 82 1007.2
20260905064506 57 67 1.0 1.0 0.00 0.00 0.00 81 1007.2
20260905064206 57 337 0.0 0.0 0.00 0.00 0.00 81 1007.2
20260905063606 57 247 0.0 0.0 0.00 0.00 0.00 80 1007.2
20260905063305 57 247 0.0 0.0 0.00 0.00 0.00 80 1007.2
20260905063006 56 225 1.0 1.0 0.00 0.00 0.00 81 1007.2
20260905062705 56 180 0.0 0.0 0.00 0.00 0.00 80 1007.2
20260905062406 56 90 0.0 0.0 0.00 0.00 0.00 80 1007.2
20260905062108 56 90 0.0 0.0 0.00 0.00 0.00 80 1007.0
20260905061805 56 67 0.0 0.0 0.00 0.00 0.00 81 1007.2
20260905061505 56 67 1.0 1.0 0.00 0.00 0.00 80 1007.2
20260905061206 55 90 0.0 0.0 0.00 0.00 0.00 80 1007.0
20260905060905 55 67 0.0 0.0 0.00 0.00 0.00 81 1007.2
20260905060606 55 337 0.0 0.0 0.00 0.00 0.00 80 1007.2
20260905060305 55 67 0.0 0.0 0.00 0.00 0.00 80 1007.2
20260905055706 54 90 0.0 0.0 0.00 0.00 0.00 80 1007.0
20260905055406 54 90 0.0 0.0 0.00 0.00 0.00 80 1006.7
20260905055105 54 90 0.0 0.0 0.00 0.00 0.00 80 1006.7
20260905054805 55 90 0.0 0.0 0.00 0.00 0.00 80 1006.7
20260905054506 55 90 0.0 0.0 0.00 0.00 0.00 79 1006.7
20260905053905 54 90 1.0 1.0 0.00 0.00 0.00 79 1006.7
20260905053605 54 337 0.0 0.0 0.00 0.00 0.00 79 1006.5
20260905053305 54 112 0.0 0.0 0.00 0.00 0.00 79 1006.7
20260905053005 54 112 0.0 0.0 0.00 0.00 0.00 79 1006.7
20260905052706 54 135 0.0 0.0 0.00 0.00 0.00 79 1006.5
20260905052106 54 135 0.0 0.0 0.00 0.00 0.00 78 1006.5
20260905051806 53 135 0.0 0.0 0.00 0.00 0.00 78 1006.5
20260905051206 53 135 0.0 0.0 0.00 0.00 0.00 77 1006.5
20260905050605 53 45 0.0 0.0 0.00 0.00 0.00 77 1006.5
20260905050305 52 45 0.0 0.0 0.00 0.00 0.00 77 1006.2
20260905050006 52 90 0.0 0.0 0.00 0.00 0.00 77 1006.2
20260905045706 52 90 0.0 0.0 0.00 0.00 0.00 77 1006.2
20260905045407 52 90 0.0 0.0 0.00 0.00 0.00 76 1006.2
20260905045107 52 67 1.0 1.0 0.00 0.00 0.00 76 1006.2
20260905044809 52 45 0.0 0.0 0.00 0.00 0.00 75 1006.2
20260905044506 52 45 0.0 0.0 0.00 0.00 0.00 76 1006.2
20260905044206 52 45 0.0 0.0 0.00 0.00 0.00 76 1006.2
20260905043906 52 45 0.0 0.0 0.00 0.00 0.00 76 1006.2
20260905043606 52 45 0.0 0.0 0.00 0.00 0.00 75 1006.2
20260905043306 52 45 0.0 0.0 0.00 0.00 0.00 76 1006.0
20260905043005 53 45 0.0 0.0 0.00 0.00 0.00 76 1006.0
20260905042406 53 45 0.0 0.0 0.00 0.00 0.00 75 1005.7
20260905042107 53 45 0.0 0.0 0.00 0.00 0.00 75 1005.7
20260905041805 53 45 0.0 0.0 0.00 0.00 0.00 75 1005.7
20260905041506 54 112 0.0 0.0 0.00 0.00 0.00 76 1005.7
20260905041206 54 112 0.0 0.0 0.00 0.00 0.00 76 1005.5
20260905040906 54 112 0.0 0.0 0.00 0.00 0.00 76 1005.2
20260905040306 54 22 0.0 0.0 0.00 0.00 0.00 76 1005.5
20260905040005 54 22 0.0 0.0 0.00 0.00 0.00 76 1005.5
20260905035706 54 22 0.0 0.0 0.00 0.00 0.00 76 1005.5
20260905035406 55 22 0.0 0.0 0.00 0.00 0.00 76 1005.5
20260905035106 55 22 0.0 0.0 0.00 0.00 0.00 75 1005.5
20260905034506 55 22 0.0 0.0 0.00 0.00 0.00 75 1005.5
20260905034206 54 22 0.0 0.0 0.00 0.00 0.00 75 1005.5
20260905033906 55 90 0.0 0.0 0.00 0.00 0.00 76 1005.5
20260905033606 55 337 0.0 0.0 0.00 0.00 0.00 75 1005.5
20260905033305 55 337 0.0 0.0 0.00 0.00 0.00 75 1005.5
20260905033005 55 90 0.0 0.0 0.00 0.00 0.00 75 1005.5
20260905032708 55 337 0.0 0.0 0.00 0.00 0.00 75 1005.2
20260905032405 55 337 0.0 0.0 0.00 0.00 0.00 75 1005.5
20260905032106 55 90 0.0 0.0 0.00 0.00 0.00 75 1005.5
20260905031806 55 90 0.0 0.0 0.00 0.00 0.00 75 1005.2
20260905031505 56 90 0.0 0.0 0.00 0.00 0.00 75 1005.2
20260905031206 56 45 0.0 0.0 0.00 0.00 0.00 75 1005.2
20260905030906 56 45 0.0 0.0 0.00 0.00 0.00 75 1005.2
20260905030306 56 0 0.0 0.0 0.00 0.00 0.00 75 1005.2
20260905030005 56 0 0.0 0.0 0.00 0.00 0.00 74 1005.2
20260905025706 56 0 0.0 0.0 0.00 0.00 0.00 74 1005.2
20260905025406 56 337 0.0 0.0 0.00 0.00 0.00 73 1005.2
20260905024805 56 337 0.0 0.0 0.00 0.00 0.00 72 1005.2
20260905024506 56 337 0.0 0.0 0.00 0.00 0.00 72 1005.2